{"data":{"norad_id":65792,"epoch":"2026-09-20T21:04:25.013856Z","epoch_age_seconds":75867,"freshness":"FRESH","line1":"1 65792U 25218B   26263.87806729  .00010579  00000+0  32950-3 0  9996","line2":"2 65792  97.2841 121.2772 0002342  91.8642 268.2869 15.33447713 54395","mean_motion":15.33447713,"eccentricity":0.0002342,"inclination_deg":97.2841,"raan_deg":121.2772,"arg_perigee_deg":91.8642,"mean_anomaly_deg":268.2869,"bstar":0.0003295,"rev_number":5439,"period_min":93.906038516489,"perigee_km":463.93231450438,"apogee_km":467.1378905172,"semimajor_km":6843.6721025108,"source":"CELESTRAK","updated_at":"2026-09-21T09:00:35.713230Z"}}